Regional Weather Roundup
Issued by NWS

Home | Current Version | Previous Version | Graphics & Text | Print | Product List | Glossary On
Versions: 1 2 3 4 5 6 7 8 9 10 11 12 13 14 15 16 17 18 19 20 21 22 23 24 25 26 27 28 29 30 31 32 33 34 35 36 37 38 39 40 41 42 43 44 45 46 47 48
000
ASUS45 KBOU 191507
RWRCO

WEATHER ROUNDUP FOR COLORADO
NATIONAL WEATHER SERVICE DENVER/BOULDER CO
900 AM MDT FRI SEP 19 2014

NOTE: "FAIR" INDICATES FEW OR NO CLOUDS BELOW 12000 FEET WITH NO
SIGNIFICANT WEATHER AND/OR OBSTRUCTIONS TO VISIBILITY.

COZ001>005-013-030-031-191600-
...NORTHWEST COLORADO...

CITY           SKY/WX    TMP DP  RH WIND       PRES   REMARKS
CRAIG          SUNNY     58  43  57 N3        30.17R
HAYDEN         SUNNY     57  39  51 E6        30.19R
MEEKER         NOT AVBL
MOUNT WERNER   NOT AVBL
STEAMBOAT SPGS SUNNY     53  41  63 CALM      30.20R
WALDEN         SUNNY     55  37  50 NW9       30.26R
$$

COZ006>008-011-191600-
...WEST CENTRAL VALLEYS...

CITY           SKY/WX    TMP DP  RH WIND       PRES   REMARKS
GRAND JUNCTION MOSUNNY   67  44  43 SE10      30.04R
MONTROSE       SUNNY     65  45  48 CALM      30.12R
EAGLE          NOT AVBL
RIFLE          SUNNY     57  46  66 W5        30.12R
DELTA          SUNNY     65  44  47 CALM      30.09R
NUCLA          PTSUNNY   63  41  45 E6        30.16S
$$

COZ017>023-064>068-191600-
...SOUTHWEST COLORADO...

CITY           SKY/WX    TMP DP  RH WIND       PRES   REMARKS
DURANGO        SUNNY     60  44  55 CALM      30.19S
CORTEZ         SUNNY     61  45  55 CALM      30.13S
PAGOSA SPRINGS SUNNY     59  42  51 CALM      30.26S
TELLURIDE      NOT AVBL
WOLF CREEK PAS SUNNY     50  37  62 NE3       30.51R
$$

COZ009-010-012-014-032>034-037-058>063-191600-
...CENTRAL COLORADO...

CITY           SKY/WX    TMP DP  RH WIND       PRES   REMARKS
ASPEN          SUNNY     59  38  45 SE5       30.23S
BUENA VISTA    SUNNY     58  32  37 NW7       30.25F
COPPER MTN     NOT AVBL
BERTHOUD PASS  FAIR      45  43  93 N8        30.57R
COTTONWOOD PAS SUNNY     63  30  29 SE5       30.37S
GUNNISON       SUNNY     48  36  61 CALM      30.31R
KREMMLING      MOSUNNY   50  37  62 CALM      30.27R
LEADVILLE      SUNNY     52  31  44 CALM      30.37R
MONARCH PASS   SUNNY     48  32  53 NW8       30.61R
SALIDA         SUNNY     57  34  41 CALM      30.31S
SUNLIGHT       SUNNY     55  37  50 CALM      30.45S
WILKERSON PASS NOT AVBL
$$

COZ069>075-191600-
...SAN LUIS VALLEY/SANGRE DE CRISTO MOUNTAINS...

CITY           SKY/WX    TMP DP  RH WIND       PRES   REMARKS
ALAMOSA        SUNNY     53  42  66 CALM      30.24S
LA VETA PASS   SUNNY     48  41  76 SW5       30.37R
SAGUACHE       NOT AVBL
$$

COZ035-036-038>040-191600-
...NORTHERN COLORADO FRONT RANGE...

CITY           SKY/WX    TMP DP  RH WIND       PRES   REMARKS
DENVER INTL AP MOSUNNY   74  37  26 SW13      30.01R
DMNS CITY PARK   N/A     71  40  31 SW6       30.00S
AURORA         NOT AVBL
FRONT RANGE AP MOSUNNY   75  39  27 SW10      30.02R
ERIE MUNI ARPT SUNNY     69  39  32 N9        30.01R
BOULDER MUN AP SUNNY     64  48  55 N5        30.02R
CENTENNIAL     MOSUNNY   73  38  27 W6        30.04R
BROOMFIELD     MOSUNNY   72  39  30 VRB3      30.03R
FORT COLLINS   MOSUNNY   66  45  45 CALM      30.02R
LONGMONT       MOSUNNY   66  47  49 N6        30.03R
$$

COZ041-046-047-076>085-087-088-191600-
...PIKES PEAK/PALMER DIVIDE AND SOUTHERN FOOTHILLS...

CITY           SKY/WX    TMP DP  RH WIND       PRES   REMARKS
COLO. SPRINGS  MOSUNNY   72  38  29 CALM      30.09S
A. F. ACADEMY  NOT AVBL
ELLICOTT       NOT AVBL
FALCON         SUNNY     69  39  32 W3        30.14R
FORT CARSON    NOT AVBL
LIMON          SUNNY     64  52  64 SE8       30.03S
MONUMENT HILL  SUNNY     70  34  26 SW12      30.12S
TRINIDAD       SUNNY     69  53  56 W18       30.07R
$$

COZ042>045-048>051-090-091-191600-
...NORTHEAST COLORADO...

CITY           SKY/WX    TMP DP  RH WIND       PRES   REMARKS
GREELEY ARPT     N/A    N/A N/A N/A MISG        N/A
AKRON          SUNNY     76  44  32 SW14      29.97R
BURLINGTON     SUNNY     71  58  63 SW20      29.99R
WRAY           SUNNY     76  58  52 S12G18    29.92F
STERLING       SUNNY     70  55  60 CALM      29.94S
HOLYOKE        NOT AVBL
FORT MORGAN    SUNNY     72  41  33 NW7       29.97F
$$

COZ086-089-092>099-191600-
...SOUTHEAST COLORADO...

CITY           SKY/WX    TMP DP  RH WIND       PRES   REMARKS
PUEBLO         SUNNY     63  52  67 CALM      30.00S
LA JUNTA       SUNNY     66  55  67 SW8       29.99R
LAMAR          SUNNY     74  59  59 S16       29.96R
SPRINGFIELD      N/A     69  59  70 SW16G25   30.03S
$$



USA.gov is the U.S. government's official web portal to all federal, state and local government web resources and services.